Regional Weather Roundup
Issued by NWS

Home | Current Version | Previous Version | Graphics & Text | Print | Product List | Glossary On
Versions: 1 2 3 4 5 6 7 8 9 10 11 12 13 14 15 16 17 18 19 20 21 22 23 24 25 26 27 28 29 30 31 32 33 34 35 36 37 38 39 40 41 42 43 44 45 46 47 48 49 50
000
ASUS43 KTOP 190908
RWRKS

WEATHER ROUNDUP FOR KANSAS
NATIONAL WEATHER SERVICE GOODLAND KS
400 AM CDT TUE SEP 19 2017

NOTE:  "FAIR" INDICATES FEW OR NO CLOUDS BELOW 12,000 FEET WITH NO
SIGNIFICANT WEATHER AND/OR OBSTRUCTIONS TO VISIBILITY.

KSZ001>006-013>018-027>032-041>047-191000-
NORTHWEST KANSAS

CITY           SKY/WX    TMP DP  RH WIND       PRES   REMARKS
GOODLAND       CLEAR     62  60  93 S14       29.77F
HAYS           CLEAR     71  65  81 S14       29.81F
HILL CITY      CLEAR     69  65  86 S8        29.80F
RUSSELL        CLEAR     69  64  84 S14       29.80F
$$

KSZ061>065-074>080-084>089-191000-
SOUTHWEST KANSAS

CITY           SKY/WX    TMP DP  RH WIND       PRES   REMARKS
DODGE CITY     CLEAR     67  64  90 S13       29.84F
ELKHART          N/A     62  63 100 S10         N/A
GARDEN CITY    CLEAR     65  63  93 SE9       29.82F
GREAT BEND     CLEAR     69  65  86 S9        29.83F
LIBERAL        CLEAR     66  63  90 S10       29.84F
PRATT          PTCLDY    71  63  76 S9        29.85F
$$

KSZ066>073-081>083-090>101-191000-
SOUTHEAST KANSAS

CITY           SKY/WX    TMP DP  RH WIND       PRES   REMARKS
CHANUTE        PTCLDY    68  65  90 S5        29.89F
COFFEYVILLE    MOCLDY    68  65  90 CALM      29.88F
HUTCHINSON     CLEAR     66  66 100 SE6       29.85F
MEDICINE LODGE   N/A     70  64  81 SE9       29.84F
NEWTON         CLEAR     66  65  96 SE8       29.87F
WICHITA INTL   PTCLDY    68  67  96 SE7       29.86F
WICHITA JABRA  CLEAR     68  68 100 S7        29.86F
WICHITA MCCONL CLEAR     68  65  90 S6        29.86F
WINFIELD       CLEAR     69  68  96 SE5       29.88F
$$

KSZ007>012-019>026-033>040-048>060-102>105-191000-
NORTHEAST KANSAS

CITY           SKY/WX    TMP DP  RH WIND       PRES   REMARKS
CONCORDIA      CLEAR     66  65  96 S10       29.82F
EMPORIA        CLEAR     67  64  90 S12       29.87F
LAWRENCE       MOCLDY    67  67 100 NE6       29.87F
MANHATTAN      CLEAR     71  66  84 SW9       29.83F
MARYSVILLE     CLEAR     68  64  88 S6        29.84F
OLATHE IND     CLOUDY    68  66  93 E8        29.90S
OLATHE EXE     LGT RAIN  65  65 100 S6        29.89F
SALINA         CLEAR     71  66  84 S9        29.82F
TOPEKA BILLARD PTCLDY    69  67  93 SE6       29.85F
TOPEKA FORBES  CLOUDY    69  66  90 SE5       29.86F
$$




USA.gov is the U.S. government's official web portal to all federal, state and local government web resources and services.